TimeEDT,TemperatureF,Dew PointF,Humidity,Sea Level PressureIn,VisibilityMPH,Wind Direction,Wind SpeedMPH,Gust SpeedMPH,PrecipitationIn,Events,Conditions,WindDirDegrees,DateUTC
12:10 AM,57.2,48.2,72,30.25,10.0,ENE,6.9,-,N/A,,Overcast,60,2013-10-10 04:10:00
12:18 AM,57.2,48.2,72,30.24,10.0,NE,9.2,-,N/A,,Overcast,50,2013-10-10 04:18:00
12:47 AM,57.2,48.2,72,30.23,10.0,NE,6.9,-,N/A,,Overcast,50,2013-10-10 04:47:00
12:54 AM,57.9,48.9,72,30.23,10.0,NE,6.9,-,N/A,,Overcast,50,2013-10-10 04:54:00
1:54 AM,57.9,50.0,75,30.23,10.0,NE,4.6,-,N/A,,Overcast,40,2013-10-10 05:54:00
2:54 AM,57.9,50.0,75,30.20,10.0,NE,8.1,-,N/A,,Overcast,40,2013-10-10 06:54:00
3:54 AM,55.9,50.0,80,30.20,10.0,NE,4.6,-,0.01,Rain,Light Rain,50,2013-10-10 07:54:00
4:13 AM,55.4,51.8,88,30.20,8.0,NE,6.9,-,0.02,Rain,Rain,40,2013-10-10 08:13:00
4:54 AM,55.0,51.1,86,30.19,9.0,NNE,9.2,18.4,0.07,Rain,Light Rain,30,2013-10-10 08:54:00
5:10 AM,55.4,51.8,88,30.19,10.0,NNE,8.1,-,0.01,Rain,Light Rain,30,2013-10-10 09:10:00
5:54 AM,55.0,52.0,89,30.18,10.0,NNE,8.1,-,0.02,Rain,Light Rain,30,2013-10-10 09:54:00
6:34 AM,55.4,51.8,88,30.17,10.0,NNE,10.4,17.3,0.03,Rain,Light Rain,30,2013-10-10 10:34:00
6:54 AM,55.0,52.0,89,30.17,10.0,NNE,10.4,21.9,0.04,Rain,Light Rain,30,2013-10-10 10:54:00
7:54 AM,55.0,52.0,89,30.18,10.0,NE,8.1,-,0.00,,Overcast,40,2013-10-10 11:54:00
8:54 AM,55.9,53.1,90,30.18,10.0,North,6.9,-,0.00,,Overcast,10,2013-10-10 12:54:00
9:54 AM,54.0,53.1,97,30.17,10.0,NNE,10.4,-,0.02,,Overcast,20,2013-10-10 13:54:00
10:41 AM,55.4,53.6,94,30.16,2.5,North,10.4,-,0.04,Rain,Light Rain,10,2013-10-10 14:41:00
10:54 AM,55.0,53.1,93,30.15,7.0,NNE,10.4,-,0.05,Rain,Light Rain,20,2013-10-10 14:54:00
11:54 AM,55.9,54.0,93,30.15,9.0,Variable,6.9,-,0.00,Rain,Light Rain,0,2013-10-10 15:54:00
1:54 PM,57.9,55.0,90,30.09,10.0,NNE,10.4,18.4,0.01,,Overcast,30,2013-10-10 17:54:00
3:39 PM,59.0,55.4,88,30.07,10.0,NE,6.9,-,N/A,,Overcast,40,2013-10-10 19:39:00
3:54 PM,59.0,55.9,90,30.06,10.0,NE,11.5,19.6,N/A,,Overcast,40,2013-10-10 19:54:00
4:36 PM,59.0,55.4,88,30.06,1.8,NE,8.1,16.1,0.02,Rain,Rain,50,2013-10-10 20:36:00
4:54 PM,59.0,55.9,90,30.05,4.0,NE,8.1,19.6,0.03,Rain,Light Rain,40,2013-10-10 20:54:00
5:54 PM,59.0,55.9,90,30.04,8.0,NE,9.2,-,0.00,,Overcast,40,2013-10-10 21:54:00
7:03 PM,59.0,57.2,94,30.05,4.0,NE,8.1,16.1,0.00,Rain,Light Rain,40,2013-10-10 23:03:00
7:43 PM,60.8,57.2,88,30.03,10.0,Variable,6.9,16.1,0.00,,Overcast,0,2013-10-10 23:43:00
7:54 PM,60.1,57.9,93,30.03,10.0,NE,8.1,21.9,0.00,,Overcast,50,2013-10-10 23:54:00
8:34 PM,60.8,57.2,88,30.03,10.0,NE,11.5,19.6,N/A,,Overcast,50,2013-10-11 00:34:00
8:54 PM,61.0,57.0,87,30.03,10.0,NE,10.4,17.3,N/A,,Overcast,50,2013-10-11 00:54:00
9:54 PM,61.0,57.0,87,30.03,8.0,NE,10.4,19.6,0.00,Rain,Light Rain,50,2013-10-11 01:54:00
10:54 PM,61.0,57.0,87,30.02,9.0,NE,8.1,-,0.01,Rain,Light Rain,50,2013-10-11 02:54:00
11:33 PM,60.8,57.2,88,30.02,10.0,Variable,5.8,-,0.00,,Overcast,0,2013-10-11 03:33:00
11:54 PM,60.1,57.0,90,30.01,10.0,NE,6.9,17.3,0.00,,Overcast,40,2013-10-11 03:54:00